Mount Holly, NJ

10:00 PM EST on December 12, 2017 (GMT -0500)
South Jersey Regional

Weather History for KVAY - June, 2014

Change the Weather History Date:

Saturday, June 28, 2014

  Actual Average (KPNE) Record (KPNE)
Temperature  
Mean Temperature 70 °F -  
Max Temperature 86 °F 83 °F 96 °F (2010)
Min Temperature 57 °F 64 °F 57 °F (2004)
Cooling Degree Days 6    
Growing Degree Days 20 (Base 50)    
Moisture  
Dew Point 57 °F    
Average Humidity 62    
Maximum Humidity 96    
Minimum Humidity 33    
Precipitation  
Precipitation 0.00 in - - ()
Sea Level Pressure  
Sea Level Pressure 30.25 in    
Wind  
Wind Speed 1 mph (East)    
Max Wind Speed 7 mph    
Max Gust Speed -    
Visibility 10 miles    
Events      
Averages and records for this station are not official NWS values.
T = Trace of Precipitation, MM = Missing Value Source: NWS Daily Summary

Daily Weather History Graph

Daily Weather History Graph

Search for Another Location

Airport or City:

Trip Planner

Search our weather history database for the weather conditions in past years. The results will help you decide how hot, cold, wet, or windy it might be!

Date:

Astronomy

Jun. 28, 2014 Rise Set
Actual Time 5:33 AM EDT 8:32 PM EDT
Civil Twilight 5:00 AM EDT 9:04 PM EDT
Nautical Twilight 4:18 AM EDT 9:46 PM EDT
Astronomical Twilight 3:30 AM EDT 10:34 PM EDT
Moon 6:54 AM EDT (6/28) 9:15 PM EDT (6/28)
Length of Visible Light 16h 04m
Length of Day
14h 59m
New Moon, 2% of the Moon is Illuminated
Jun 28
New Moon
Jul 5
First Quarter
Jul 12
Full
Jul 18
Last Quarter
Jul 26
New

Hourly Weather History & Observations

Time (EDT) Temp. Heat Index Dew Point Humidity Pressure Visibility Wind Dir Wind Speed Gust Speed Precip Events Conditions
12:54 AM 62.1 °F - 57.9 °F 86% 30.23 in 10.0 mi Calm Calm - N/A   Clear
1:54 AM 61.0 °F - 57.0 °F 87% 30.23 in 10.0 mi Calm Calm - N/A   Clear
2:54 AM 60.1 °F - 57.0 °F 90% 30.23 in 10.0 mi Calm Calm - N/A   Clear
3:54 AM 59.0 °F - 57.0 °F 93% 30.23 in 10.0 mi Calm Calm - N/A   Clear
4:54 AM 59.0 °F - 57.0 °F 93% 30.23 in 10.0 mi Calm Calm - N/A   Clear
5:54 AM 57.0 °F - 55.9 °F 96% 30.25 in 10.0 mi Calm Calm - N/A   Clear
6:54 AM 62.1 °F - 60.1 °F 93% 30.26 in 10.0 mi Calm Calm - N/A   Clear
7:54 AM 69.1 °F - 61.0 °F 75% 30.27 in 10.0 mi NE 3.5 mph - N/A   Clear
8:54 AM 73.0 °F - 57.9 °F 59% 30.29 in 10.0 mi Variable 3.5 mph - N/A   Clear
9:54 AM 75.9 °F - 54.0 °F 46% 30.28 in 10.0 mi NE 3.5 mph - N/A   Clear
10:54 AM 79.0 °F - 55.0 °F 44% 30.28 in 10.0 mi Calm Calm - N/A   Clear
11:54 AM 81.0 °F 81.0 °F 57.0 °F 44% 30.28 in 10.0 mi North 4.6 mph - N/A   Clear
12:54 PM 81.0 °F 81.0 °F 57.0 °F 44% 30.28 in 10.0 mi Calm Calm - N/A   Clear
1:54 PM 82.9 °F 82.6 °F 57.9 °F 42% 30.26 in 10.0 mi East 5.8 mph - N/A   Partly Cloudy
2:54 PM 84.9 °F 83.7 °F 55.9 °F 37% 30.25 in 10.0 mi Variable 5.8 mph - N/A   Clear
3:54 PM 84.9 °F 83.7 °F 55.9 °F 37% 30.23 in 10.0 mi Calm Calm - N/A   Partly Cloudy
4:54 PM 84.9 °F 83.2 °F 53.1 °F 33% 30.22 in 10.0 mi Calm Calm - N/A   Clear
5:54 PM 82.9 °F 82.8 °F 59.0 °F 44% 30.21 in 10.0 mi SE 5.8 mph - N/A   Clear
6:54 PM 80.1 °F 80.4 °F 57.0 °F 45% 30.21 in 10.0 mi Variable 6.9 mph - N/A   Clear
7:54 PM 77.0 °F - 55.0 °F 47% 30.23 in 10.0 mi SE 3.5 mph - N/A   Clear
8:54 PM 73.9 °F - 57.0 °F 55% 30.25 in 10.0 mi SE 4.6 mph - N/A   Clear
9:54 PM 71.1 °F - 57.9 °F 63% 30.27 in 10.0 mi Calm Calm - N/A   Clear
10:54 PM 69.1 °F - 57.9 °F 68% 30.27 in 10.0 mi Variable 3.5 mph - N/A   Clear
11:54 PM 66.9 °F - 57.9 °F 73% 30.26 in 10.0 mi Calm Calm - N/A   Clear